Cook, MN

2:12 AM CDT on March 23, 2017 (GMT -0500)
Cook Municipal

Weather History for KCQM - July, 2013

Change the Weather History Date:

Tuesday, July 9, 2013

  Actual Average Record
Temperature  
Mean Temperature 64 °F -  
Max Temperature 71 °F 75 °F 87 °F (2005)
Min Temperature 57 °F 51 °F 33 °F (2000)
Degree Days  
Heating Degree Days 1    
Growing Degree Days 14 (Base 50)    
Moisture  
Dew Point 62 °F    
Average Humidity 89    
Maximum Humidity 100    
Minimum Humidity 78    
Precipitation  
Precipitation 0.14 in - - ()
Sea Level Pressure  
Sea Level Pressure 29.88 in    
Wind  
Wind Speed 3 mph (West)    
Max Wind Speed 12 mph    
Max Gust Speed 16 mph    
Visibility 9 miles    
Events Rain    
Averages and records for this station are not official NWS values.
T = Trace of Precipitation, MM = Missing Value Source: NWS Daily Summary

Daily Weather History Graph

Daily Weather History Graph

Search for Another Location

Airport or City:

Trip Planner

Search our weather history database for the weather conditions in past years. The results will help you decide how hot, cold, wet, or windy it might be!

Date:

Astronomy

Jul. 09, 2013 Rise Set
Actual Time 5:22 AM CDT 9:09 PM CDT
Civil Twilight 4:42 AM CDT 9:49 PM CDT
Nautical Twilight 3:48 AM CDT 10:43 PM CDT
Astronomical Twilight 2:28 AM CDT 12:01 AM CDT
Moon 6:57 AM CDT (7/9) 9:34 PM CDT (7/9)
Length of Visible Light 17h 06m
Length of Day
15h 47m
New Moon, 2% of the Moon is Illuminated
Jul 9
New Moon
Jul 15
First Quarter
Jul 22
Full
Jul 29
Last Quarter
Aug 6
New

Hourly Weather History & Observations

Time (CDT) Temp. Dew Point Humidity Pressure Visibility Wind Dir Wind Speed Gust Speed Precip Events Conditions
12:16 AM 66.2 °F 62.6 °F 88% 29.99 in 10.0 mi South 4.6 mph - N/A   Clear
12:37 AM 66.2 °F 62.6 °F 88% 29.99 in 10.0 mi South 4.6 mph - N/A   Clear
12:56 AM 66.2 °F 62.6 °F 88% 29.98 in 10.0 mi South 4.6 mph - N/A   Clear
1:17 AM 66.2 °F 62.6 °F 88% 29.99 in 10.0 mi South 3.5 mph - N/A   Clear
1:37 AM 64.4 °F 62.6 °F 94% 29.98 in 10.0 mi Calm Calm - N/A   Clear
1:56 AM 64.4 °F 62.6 °F 94% 29.97 in 10.0 mi SSE 3.5 mph - N/A   Clear
2:17 AM 64.4 °F 60.8 °F 88% 29.96 in 10.0 mi SE 3.5 mph - N/A   Clear
2:37 AM 64.4 °F 60.8 °F 88% 29.95 in 10.0 mi SE 3.5 mph - N/A   Clear
2:56 AM 64.4 °F 60.8 °F 88% 29.94 in 10.0 mi Calm Calm - N/A   Clear
3:17 AM 64.4 °F 60.8 °F 88% 29.94 in 10.0 mi Calm Calm - N/A   Clear
3:36 AM 62.6 °F 60.8 °F 94% 29.94 in 10.0 mi Calm Calm - N/A   Clear
3:57 AM 62.6 °F 60.8 °F 94% 29.94 in 10.0 mi Calm Calm - N/A   Clear
4:17 AM 62.6 °F 60.8 °F 94% 29.93 in 10.0 mi Calm Calm - N/A   Clear
4:36 AM 60.8 °F 59.0 °F 94% 29.93 in 10.0 mi Calm Calm - N/A   Clear
4:56 AM 60.8 °F 59.0 °F 94% 29.93 in 7.0 mi Calm Calm - N/A   Clear
5:17 AM 60.8 °F 60.8 °F 100% 29.92 in 7.0 mi Calm Calm - N/A   Clear
5:36 AM 59.0 °F 57.2 °F 94% 29.92 in 5.0 mi Calm Calm - N/A   Clear
5:56 AM 60.8 °F 60.8 °F 100% 29.92 in 5.0 mi Calm Calm - N/A   Clear
6:17 AM 60.8 °F 60.8 °F 100% 29.91 in 7.0 mi Calm Calm - N/A   Mostly Cloudy
6:36 AM 62.6 °F 60.8 °F 94% 29.90 in 7.0 mi Calm Calm - N/A   Scattered Clouds
6:57 AM 62.6 °F 60.8 °F 94% 29.89 in 10.0 mi Calm Calm - N/A   Clear
7:17 AM 64.4 °F 62.6 °F 94% 29.88 in 10.0 mi Calm Calm - N/A   Clear
7:36 AM 66.2 °F 62.6 °F 88% 29.87 in 10.0 mi Calm Calm - N/A   Clear
7:57 AM 66.2 °F 64.4 °F 94% 29.87 in 10.0 mi Calm Calm - N/A   Clear
8:17 AM 66.2 °F 64.4 °F 94% 29.87 in 10.0 mi Calm Calm - N/A   Clear
8:36 AM 68.0 °F 64.4 °F 88% 29.87 in 10.0 mi Calm Calm - N/A   Clear
8:57 AM 68.0 °F 64.4 °F 88% 29.86 in 10.0 mi Calm Calm - N/A   Clear
9:16 AM 69.8 °F 64.4 °F 83% 29.84 in 10.0 mi Calm Calm - N/A   Clear
9:37 AM 69.8 °F 64.4 °F 83% 29.83 in 10.0 mi Calm Calm - N/A   Clear
9:57 AM 71.6 °F 64.4 °F 78% 29.83 in 10.0 mi SSE 5.8 mph - N/A   Clear
10:16 AM 71.6 °F 64.4 °F 78% 29.83 in 10.0 mi Calm Calm - N/A   Clear
10:37 AM 71.6 °F 64.4 °F 78% 29.83 in 10.0 mi SE 3.5 mph - N/A   Scattered Clouds
10:57 AM 69.8 °F 64.4 °F 83% 29.85 in 10.0 mi Calm Calm - N/A   Mostly Cloudy
11:16 AM 69.8 °F 64.4 °F 83% 29.84 in 5.0 mi SSE 5.8 mph - N/A Rain Rain
11:37 AM 69.8 °F 66.2 °F 88% 29.85 in 10.0 mi South 4.6 mph - N/A   Scattered Clouds
11:57 AM 69.8 °F 66.2 °F 88% 29.84 in 10.0 mi Calm Calm - N/A   Clear
12:16 PM 71.6 °F 66.2 °F 83% 29.84 in 10.0 mi SSE 4.6 mph - N/A Rain Light Rain
12:37 PM 71.6 °F 66.2 °F 83% 29.83 in 7.0 mi SW 3.5 mph - N/A Rain Light Rain
12:57 PM 71.6 °F 66.2 °F 83% 29.83 in 5.0 mi South 4.6 mph - 0.01 in Rain Rain
1:16 PM 69.8 °F 66.2 °F 88% 29.83 in 7.0 mi WSW 6.9 mph - 0.03 in Rain Light Rain
1:37 PM 69.8 °F 66.2 °F 88% 29.83 in 7.0 mi WSW 8.1 mph - 0.03 in Rain Light Rain
1:57 PM 68.0 °F 66.2 °F 94% 29.83 in 7.0 mi WSW 11.5 mph - N/A Rain Rain
2:16 PM 69.8 °F 66.2 °F 88% 29.83 in 7.0 mi West 9.2 mph - N/A Rain Light Rain
2:37 PM 68.0 °F 66.2 °F 94% 29.83 in 10.0 mi WNW 4.6 mph - N/A   Mostly Cloudy
2:57 PM 68.0 °F 66.2 °F 94% 29.82 in 5.0 mi WNW 5.8 mph - N/A Rain Rain
3:16 PM 69.8 °F 66.2 °F 88% 29.82 in 10.0 mi NW 4.6 mph - 0.01 in   Scattered Clouds
3:37 PM 69.8 °F 66.2 °F 88% 29.82 in 10.0 mi West 4.6 mph - 0.01 in   Mostly Cloudy
3:56 PM 68.0 °F 64.4 °F 88% 29.81 in 5.0 mi West 6.9 mph - N/A Rain Rain
4:17 PM 68.0 °F 64.4 °F 88% 29.80 in 10.0 mi NW 3.5 mph - N/A   Mostly Cloudy
4:36 PM 68.0 °F 64.4 °F 88% 29.81 in 10.0 mi West 3.5 mph - N/A   Mostly Cloudy
4:56 PM 68.0 °F 64.4 °F 88% 29.81 in 10.0 mi West 4.6 mph - N/A   Overcast
5:16 PM 69.8 °F 64.4 °F 83% 29.81 in 10.0 mi West 3.5 mph - N/A   Mostly Cloudy
5:36 PM 69.8 °F 64.4 °F 83% 29.80 in 10.0 mi West 5.8 mph - N/A   Mostly Cloudy
5:56 PM 68.0 °F 64.4 °F 88% 29.81 in 4.0 mi NNW 4.6 mph - 0.01 in Rain Heavy Rain
6:16 PM 66.2 °F 64.4 °F 94% 29.82 in 3.0 mi Calm Calm - 0.05 in Rain Rain
6:37 PM 66.2 °F 64.4 °F 94% 29.83 in 10.0 mi NW 6.9 mph - 0.08 in   Overcast
6:56 PM 66.2 °F 62.6 °F 88% 29.84 in 10.0 mi NW 8.1 mph - N/A   Overcast
7:17 PM 66.2 °F 62.6 °F 88% 29.84 in 10.0 mi NW 9.2 mph - N/A   Overcast
7:36 PM 66.2 °F 60.8 °F 83% 29.85 in 10.0 mi NW 6.9 mph 16.1 mph N/A   Scattered Clouds
7:56 PM 64.4 °F 60.8 °F 88% 29.86 in 10.0 mi WNW 5.8 mph - N/A   Scattered Clouds
8:17 PM 64.4 °F 60.8 °F 88% 29.87 in 10.0 mi NW 5.8 mph - N/A   Mostly Cloudy
8:36 PM 64.4 °F 60.8 °F 88% 29.87 in 10.0 mi NW 5.8 mph - N/A   Overcast
8:57 PM 62.6 °F 60.8 °F 94% 29.87 in 10.0 mi NW 3.5 mph - N/A   Overcast
9:16 PM 62.6 °F 60.8 °F 94% 29.88 in 10.0 mi WNW 3.5 mph - N/A   Scattered Clouds
9:37 PM 62.6 °F 59.0 °F 88% 29.89 in 10.0 mi WNW 4.6 mph - N/A   Mostly Cloudy
9:56 PM 62.6 °F 59.0 °F 88% 29.89 in 10.0 mi West 4.6 mph - N/A   Mostly Cloudy
10:16 PM 60.8 °F 57.2 °F 88% 29.90 in 10.0 mi West 3.5 mph - N/A   Scattered Clouds
10:37 PM 60.8 °F 57.2 °F 88% 29.90 in 10.0 mi WNW 8.1 mph - N/A   Clear
10:56 PM 60.8 °F 55.4 °F 82% 29.90 in 10.0 mi WNW 6.9 mph - N/A   Clear
11:17 PM 59.0 °F 55.4 °F 88% 29.91 in 10.0 mi West 5.8 mph - N/A   Clear
11:36 PM 57.2 °F 55.4 °F 94% 29.91 in 10.0 mi West 6.9 mph - N/A   Scattered Clouds
11:56 PM 57.2 °F 55.4 °F 94% 29.91 in 10.0 mi West 5.8 mph - N/A   Scattered Clouds